Regional Weather Roundup
Issued by NWS

Home | Current Version | Previous Version | Graphics & Text | Print | Product List | Glossary On
Versions: 1 2 3 4 5 6 7 8 9 10 11 12 13 14 15 16 17 18 19 20 21 22 23 24 25 26 27 28 29 30 31 32 33 34 35 36 37 38 39 40 41 42 43 44 45 46 47 48 49 50
000
ASUS44 KMEG 312100
RWRTN
TENNESSEE HOURLY STATE WEATHER ROUNDUP
NATIONAL WEATHER SERVICE MEMPHIS TN
400 PM CDT TUE MAY 31 2016

TNZ002-004-019-021-049-052-054-088>092-312200-
WEST TENNESSEE

CITY           SKY/WX    TMP DP  RH WIND       PRES   REMARKS
MEMPHIS INTL   MOSUNNY   84  66  54 SW6       29.89F
NWS MEMPHIS      N/A     84 N/A N/A MISG        N/A
JACKSON        MOSUNNY   82  65  56 S5        29.90F
DYERSBURG      MOSUNNY   82  64  54 CALM      29.89F
UNION CITY     SUNNY     82  64  54 SE6       29.89F
PARIS          SUNNY     82  66  57 SE5       29.92F
LEXINGTON      SUNNY     82  63  51 S5        29.90F
$$

TNZ008-025-027-028-033-062-065-066-312200-
NORTH MIDDLE TENNESSEE

CITY           SKY/WX    TMP DP  RH WIND       PRES   REMARKS
NASHVILLE      PTSUNNY   89  58  34 NE8       29.91F
CLARKSVILLE    CLOUDY    85  60  42 SE7       29.91F
COOKEVILLE     MOSUNNY   88  64  45 VRB3      29.93F
CROSSVILLE     PTSUNNY   82  62  50 N7        29.99F
$$

TNZ061-075-076-078-094-096-097-312200-
SOUTH MIDDLE TENNESSEE

CITY           SKY/WX    TMP DP  RH WIND       PRES   REMARKS
TULLAHOMA      SUNNY     88  55  33 N5        29.94F
WINCHESTER     SUNNY     88  57  35 W5        29.92F
MCMINNVILLE    SUNNY     88  59  37 CALM      29.93F
COLUMBIA       SUNNY     88  66  48 VRB3      29.90F HX  90
SHELBYVILLE    SUNNY     91  57  31 VRB3      29.92F HX  90
$$

TNZ017-018-042-046-047-312200-
NORTHEAST TENNESSEE

CITY           SKY/WX    TMP DP  RH WIND       PRES   REMARKS
TRI CITIES     PTSUNNY   88  59  37 N7        29.95F
$$

TNZ012-013-036-069-073-074-312200-
CENTRAL EAST TENNESSEE

CITY           SKY/WX    TMP DP  RH WIND       PRES   REMARKS
KNOXVILLE      PTSUNNY   88  58  36 NW7       29.91F
OAK RIDGE      MOSUNNY   88  58  36 E5        29.93F
GATLINBURG       N/A     88  61  40 NW5       29.92F
$$

TNZ083-085-099-312200-
SOUTHEAST TENNESSEE

CITY           SKY/WX    TMP DP  RH WIND       PRES   REMARKS
CHATTANOOGA    PTSUNNY   92  54  27 NE7       29.90F HX  90
$$

SKY/WX REPORTED AS FAIR MEANS FEW OR NO CLOUDS BELOW
12 THOUSAND FEET.




USA.gov is the U.S. government's official web portal to all federal, state and local government web resources and services.